QPF
0.04 0.03 0.02 0.02 0.02 0.02 0.01 0.01 0.00 0.01 0.02 0.05 0.05 0.04 0.05 0.07 0.06 0.05 0.04 0.04 0.03 0.03 0.04 0.03 0.03 0.02 0.02 0.03 0.02 0.02 0.01 0.00 0.01 0.02 0.02 0.02 0.02 0.02 0.02 0.02 0.02 0.01 0.01
0.04 0.04 0.02 0.02 0.01 0.01 0.01 0.01 0.01 0.01 0.01 0.03 0.04 0.04 0.04 0.05 0.07 0.05 0.04 0.04 0.04 0.04 0.04 0.04 0.03 0.02 0.02 0.04 0.03 0.02 0.02 0.01 0.01 0.01 0.01 0.01 0.01 0.02 0.03 0.03 0.03 0.01 0.01
0.03 0.04 0.02 0.02 0.01 0.01 0.00 0.01 0.01 0.02 0.02 0.02 0.01 0.02 0.03 0.04 0.05 0.08 0.07 0.05 0.03 0.04 0.05 0.04 0.02 0.02 0.03 0.03 0.03 0.02 0.02 0.01 0.01 0.01 0.01 0.02 0.01 0.01 0.02 0.03 0.02 0.02 0.02
0.02 0.03 0.02 0.02 0.01 0.01 0.01 0.01 0.02 0.03 0.03 0.02 0.01 0.02 0.02 0.03 0.04 0.06 0.08 0.08 0.06 0.03 0.04 0.05 0.04 0.03 0.04 0.04 0.04 0.04 0.03 0.02 0.01 0.01 0.02 0.02 0.02 0.02 0.02 0.03 0.03 0.05 0.05
0.02 0.03 0.03 0.02 0.02 0.02 0.02 0.03 0.03 0.03 0.02 0.03 0.02 0.02 0.02 0.02 0.04 0.06 0.08 0.08 0.09 0.06 0.04 0.05 0.05 0.04 0.03 0.03 0.04 0.04 0.03 0.03 0.02 0.02 0.02 0.02 0.02 0.02 0.03 0.03 0.04 0.04 0.03
0.02 0.02 0.03 0.03 0.03 0.03 0.03 0.03 0.03 0.03 0.02 0.02 0.03 0.02 0.02 0.02 0.04 0.06 0.08 0.08 0.08 0.09 0.08 0.05 0.04 0.03 0.02 0.02 0.03 0.04 0.04 0.03 0.02 0.02 0.02 0.02 0.02 0.03 0.02 0.02 0.02 0.02 0.02
0.02 0.02 0.03 0.04 0.03 0.02 0.02 0.02 0.02 0.01 0.01 0.01 0.02 0.02 0.02 0.02 0.03 0.05 0.06 0.08 0.09 0.09 0.07 0.05 0.05 0.03 0.02 0.02 0.02 0.03 0.03 0.04 0.03 0.02 0.02 0.02 0.02 0.03 0.03 0.03 0.02 0.01 0.01
0.01 0.03 0.03 0.04 0.03 0.02 0.01 0.01 0.01 0.01 0.02 0.02 0.02 0.02 0.02 0.03 0.03 0.03 0.06 0.06 0.07 0.08 0.08 0.06 0.04 0.04 0.03 0.02 0.02 0.02 0.02 0.02 0.02 0.02 0.01 0.01 0.01 0.02 0.02 0.02 0.01 0.01 0.00
0.01 0.01 0.02 0.03 0.03 0.02 0.01 0.01 0.01 0.02 0.02 0.02 0.03 0.03 0.03 0.02 0.03 0.04 0.06 0.06 0.06 0.06 0.08 0.09 0.07 0.04 0.03 0.03 0.02 0.02 0.02 0.01 0.01 0.01 0.01 0.01 0.01 0.01 0.01 0.01 0.01 0.01 0.00
0.02 0.02 0.02 0.04 0.03 0.02 0.01 0.02 0.01 0.02 0.03 0.02 0.03 0.04 0.04 0.03 0.03 0.04 0.08 0.09 0.07 0.06 0.06 0.06 0.07 0.08 0.06 0.04 0.02 0.02 0.02 0.01 0.01 0.01 0.01 0.01 0.01 0.01 0.01 0.01 0.01 0.01 0.01
0.03 0.06 0.04 0.05 0.04 0.03 0.02 0.01 0.01 0.01 0.03 0.03 0.02 0.04 0.05 0.04 0.03 0.03 0.05 0.07 0.08 0.09 0.07 0.06 0.06 0.06 0.05 0.04 0.03 0.02 0.02 0.02 0.01 0.01 0.01 0.01 0.01 0.01 0.01 0.02 0.02 0.01 0.02
0.02 0.03 0.04 0.04 0.02 0.02 0.01 0.01 0.01 0.01 0.02 0.03 0.03 0.04 0.05 0.06 0.05 0.03 0.04 0.06 0.07 0.08 0.07 0.06 0.05 0.05 0.04 0.03 0.03 0.02 0.02 0.01 0.01 0.01 0.01 0.01 0.01 0.01 0.01 0.01 0.02 0.03 0.03
0.02 0.02 0.03 0.03 0.01 0.01 0.01 0.01 0.01 0.01 0.01 0.02 0.02 0.04 0.05 0.07 0.07 0.06 0.06 0.08 0.09 0.08 0.07 0.07 0.05 0.03 0.02 0.02 0.02 0.02 0.01 0.01 0.01 0.01 0.01 0.01 0.01 0.01 0.01 0.01 0.02 0.03 0.03
0.01 0.01 0.02 0.01 0.01 0.00 0.00 0.01 0.01 0.01 0.02 0.03 0.02 0.03 0.05 0.07 0.09 0.09 0.07 0.08 0.07 0.06 0.06 0.07 0.07 0.05 0.03 0.02 0.02 0.02 0.01 0.01 0.01 0.01 0.01 0.01 0.01 0.01 0.01 0.01 0.01 0.03 0.03
0.01 0.01 0.01 0.01 0.01 0.01 0.01 0.01 0.01 0.01 0.02 0.03 0.04 0.03 0.04 0.06 0.06 0.07 0.07 0.07 0.07 0.06 0.06 0.06 0.08 0.08 0.05 0.02 0.02 0.02 0.01 0.01 0.01 0.00 0.00 0.00 0.00 0.00 0.00 0.00 0.01 0.02 0.02
0.02 0.02 0.02 0.01 0.01 0.00 0.00 0.00 0.01 0.01 0.01 0.02 0.03 0.04 0.05 0.05 0.05 0.05 0.07 0.08 0.07 0.06 0.07 0.07 0.07 0.09 0.08 0.04 0.03 0.02 0.01 0.01 0.01 0.01 0.00 0.00 0.00 0.00 0.00 0.00 0.01 0.01 0.02
0.04 0.05 0.04 0.03 0.01 0.01 0.01 0.00 0.01 0.01 0.01 0.02 0.02 0.03 0.05 0.06 0.05 0.06 0.06 0.07 0.07 0.06 0.06 0.06 0.06 0.06 0.06 0.04 0.03 0.02 0.02 0.01 0.01 0.01 0.01 0.01 0.01 0.01 0.01 0.00 0.01 0.01 0.01
0.02 0.04 0.05 0.06 0.04 0.02 0.01 0.01 0.01 0.01 0.01 0.02 0.02 0.03 0.04 0.06 0.06 0.06 0.07 0.06 0.06 0.06 0.05 0.04 0.05 0.04 0.03 0.02 0.02 0.02 0.02 0.01 0.01 0.01 0.01 0.01 0.01 0.01 0.01 0.01 0.01 0.00 0.00
0.01 0.03 0.05 0.06 0.06 0.05 0.03 0.01 0.01 0.01 0.01 0.01 0.02 0.02 0.03 0.04 0.07 0.07 0.06 0.05 0.05 0.05 0.06 0.05 0.04 0.04 0.02 0.02 0.03 0.02 0.01 0.01 0.02 0.02 0.01 0.01 0.02 0.02 0.02 0.01 0.01 0.01 0.01
0.01 0.01 0.05 0.07 0.07 0.04 0.04 0.04 0.03 0.02 0.01 0.01 0.01 0.02 0.02 0.03 0.03 0.06 0.06 0.05 0.05 0.05 0.06 0.06 0.04 0.04 0.03 0.01 0.02 0.02 0.02 0.02 0.02 0.02 0.02 0.02 0.03 0.04 0.03 0.03 0.03 0.02 0.02
0.00 0.00 0.04 0.07 0.09 0.05 0.05 0.07 0.05 0.03 0.02 0.02 0.02 0.02 0.02 0.02 0.03 0.03 0.05 0.07 0.06 0.06 0.06 0.06 0.05 0.05 0.03 0.02 0.02 0.03 0.02 0.02 0.02 0.03 0.03 0.03 0.03 0.03 0.03 0.04 0.03 0.02 0.02
0.00 0.00 0.02 0.06 0.08 0.06 0.05 0.05 0.06 0.06 0.05 0.04 0.02 0.02 0.02 0.03 0.02 0.03 0.03 0.05 0.07 0.07 0.06 0.07 0.07 0.06 0.04 0.02 0.02 0.02 0.02 0.02 0.03 0.02 0.02 0.02 0.02 0.02 0.02 0.02 0.02 0.02 0.02
0.01 0.01 0.02 0.03 0.06 0.07 0.04 0.04 0.05 0.05 0.05 0.03 0.02 0.02 0.03 0.05 0.05 0.04 0.05 0.05 0.06 0.09 0.09 0.09 0.10 0.07 0.05 0.03 0.02 0.02 0.02 0.03 0.02 0.02 0.02 0.02 0.03 0.03 0.02 0.01 0.02 0.02 0.02
0.03 0.03 0.03 0.03 0.05 0.08 0.06 0.04 0.04 0.06 0.05 0.03 0.03 0.08 0.08 0.08 0.09 0.07 0.08 0.10 0.09 0.09 0.12 0.10 0.11 0.11 0.06 0.04 0.03 0.03 0.03 0.03 0.02 0.02 0.02 0.03 0.03 0.03 0.02 0.02 0.01 0.02 0.01
0.01 0.01 0.02 0.04 0.05 0.08 0.09 0.06 0.05 0.07 0.06 0.03 0.03 0.04 0.07 0.06 0.05 0.06 0.06 0.07 0.10 0.12 0.12 0.12 0.10 0.11 0.08 0.04 0.04 0.03 0.04 0.04 0.03 0.03 0.03 0.02 0.02 0.02 0.02 0.02 0.02 0.02 0.02
0.00 0.01 0.01 0.02 0.04 0.06 0.10 0.10 0.08 0.07 0.05 0.03 0.03 0.03 0.05 0.04 0.04 0.05 0.06 0.04 0.05 0.08 0.11 0.14 0.13 0.10 0.08 0.06 0.05 0.04 0.04 0.05 0.05 0.05 0.05 0.03 0.03 0.03 0.02 0.02 0.02 0.02 0.02
MSLP
1008.06 1008.06 1008.28 1008.68 1009.22 1009.86 1010.54 1011.23 1011.91 1012.56 1013.16 1013.72 1014.24 1014.71 1015.12 1015.47 1015.75 1015.96 1016.09 1016.16 1016.18 1016.17 1016.15 1016.13 1016.13 1016.15 1016.21 1016.28 1016.38 1016.49 1016.59 1016.70 1016.79 1016.87 1016.93 1016.96 1016.95 1016.90 1016.81 1016.68 1016.52 1016.34 1016.15
1009.02 1008.91 1008.98 1009.23 1009.60 1010.05 1010.57 1011.12 1011.69 1012.27 1012.85 1013.42 1013.98 1014.49 1014.96 1015.35 1015.67 1015.91 1016.07 1016.17 1016.22 1016.25 1016.27 1016.31 1016.35 1016.41 1016.49 1016.57 1016.66 1016.75 1016.85 1016.95 1017.06 1017.17 1017.28 1017.39 1017.47 1017.51 1017.50 1017.44 1017.34 1017.19 1017.01
1010.24 1010.04 1009.99 1010.07 1010.26 1010.52 1010.85 1011.21 1011.63 1012.09 1012.59 1013.12 1013.65 1014.16 1014.64 1015.05 1015.39 1015.65 1015.85 1015.98 1016.09 1016.18 1016.26 1016.36 1016.46 1016.57 1016.67 1016.76 1016.85 1016.93 1017.01 1017.11 1017.23 1017.37 1017.54 1017.71 1017.88 1018.01 1018.10 1018.12 1018.07 1017.97 1017.82
1011.57 1011.32 1011.18 1011.13 1011.15 1011.23 1011.35 1011.53 1011.77 1012.07 1012.44 1012.87 1013.32 1013.78 1014.22 1014.61 1014.94 1015.21 1015.42 1015.59 1015.75 1015.90 1016.06 1016.23 1016.40 1016.56 1016.70 1016.82 1016.91 1017.00 1017.08 1017.18 1017.32 1017.50 1017.71 1017.94 1018.18 1018.39 1018.56 1018.65 1018.67 1018.61 1018.49
1012.87 1012.60 1012.41 1012.27 1012.17 1012.10 1012.05 1012.05 1012.11 1012.24 1012.45 1012.74 1013.07 1013.43 1013.79 1014.12 1014.40 1014.64 1014.85 1015.04 1015.23 1015.44 1015.66 1015.90 1016.13 1016.35 1016.55 1016.70 1016.83 1016.93 1017.04 1017.16 1017.32 1017.53 1017.79 1018.07 1018.37 1018.64 1018.85 1019.00 1019.07 1019.05 1018.96
1013.99 1013.76 1013.57 1013.40 1013.24 1013.06 1012.89 1012.74 1012.64 1012.61 1012.66 1012.79 1012.97 1013.20 1013.43 1013.66 1013.86 1014.05 1014.22 1014.41 1014.61 1014.85 1015.11 1015.40 1015.70 1015.97 1016.22 1016.42 1016.59 1016.74 1016.88 1017.04 1017.24 1017.49 1017.78 1018.09 1018.42 1018.72 1018.97 1019.15 1019.25 1019.27 1019.21
1014.88 1014.71 1014.57 1014.43 1014.25 1014.03 1013.79 1013.54 1013.32 1013.15 1013.05 1013.02 1013.06 1013.13 1013.23 1013.34 1013.44 1013.54 1013.66 1013.81 1014.00 1014.23 1014.51 1014.83 1015.16 1015.47 1015.77 1016.02 1016.24 1016.43 1016.62 1016.83 1017.07 1017.35 1017.67 1018.01 1018.34 1018.65 1018.91 1019.10 1019.22 1019.26 1019.23
1015.50 1015.43 1015.37 1015.29 1015.14 1014.93 1014.66 1014.37 1014.07 1013.81 1013.59 1013.44 1013.34 1013.28 1013.24 1013.22 1013.22 1013.23 1013.27 1013.36 1013.50 1013.70 1013.97 1014.28 1014.61 1014.94 1015.26 1015.55 1015.81 1016.06 1016.30 1016.55 1016.83 1017.14 1017.48 1017.82 1018.15 1018.45 1018.69 1018.88 1019.00 1019.06 1019.07
1015.90 1015.93 1015.97 1015.96 1015.87 1015.70 1015.45 1015.14 1014.82 1014.50 1014.21 1013.97 1013.77 1013.60 1013.46 1013.34 1013.23 1013.15 1013.12 1013.13 1013.21 1013.36 1013.58 1013.85 1014.16 1014.48 1014.80 1015.10 1015.39 1015.67 1015.95 1016.24 1016.55 1016.88 1017.21 1017.55 1017.86 1018.13 1018.36 1018.53 1018.65 1018.73 1018.78
1016.14 1016.27 1016.38 1016.45 1016.42 1016.30 1016.08 1015.80 1015.48 1015.15 1014.84 1014.55 1014.29 1014.06 1013.85 1013.65 1013.48 1013.33 1013.22 1013.17 1013.18 1013.26 1013.41 1013.62 1013.87 1014.15 1014.43 1014.72 1015.01 1015.30 1015.60 1015.91 1016.24 1016.57 1016.90 1017.21 1017.50 1017.74 1017.94 1018.10 1018.22 1018.31 1018.40
1016.30 1016.50 1016.67 1016.78 1016.80 1016.72 1016.54 1016.30 1016.00 1015.69 1015.39 1015.10 1014.83 1014.57 1014.33 1014.10 1013.89 1013.70 1013.54 1013.43 1013.38 1013.39 1013.47 1013.60 1013.78 1013.99 1014.22 1014.47 1014.73 1015.00 1015.29 1015.60 1015.92 1016.24 1016.55 1016.84 1017.09 1017.31 1017.48 1017.62 1017.74 1017.86 1017.99
1016.46 1016.69 1016.88 1017.00 1017.03 1016.97 1016.82 1016.61 1016.35 1016.08 1015.81 1015.54 1015.29 1015.05 1014.82 1014.58 1014.36 1014.16 1013.98 1013.83 1013.74 1013.69 1013.70 1013.75 1013.85 1013.98 1014.14 1014.32 1014.53 1014.76 1015.02 1015.30 1015.59 1015.89 1016.17 1016.43 1016.65 1016.84 1016.99 1017.12 1017.24 1017.38 1017.55
1016.65 1016.87 1017.04 1017.14 1017.16 1017.09 1016.95 1016.76 1016.53 1016.30 1016.07 1015.85 1015.63 1015.42 1015.22 1015.01 1014.80 1014.61 1014.42 1014.26 1014.14 1014.05 1014.00 1013.99 1014.01 1014.06 1014.14 1014.25 1014.39 1014.56 1014.77 1015.00 1015.25 1015.50 1015.75 1015.97 1016.16 1016.32 1016.46 1016.58 1016.71 1016.87 1017.07
1016.85 1017.04 1017.16 1017.21 1017.18 1017.09 1016.94 1016.76 1016.56 1016.37 1016.18 1016.00 1015.82 1015.66 1015.48 1015.31 1015.13 1014.95 1014.78 1014.62 1014.48 1014.37 1014.28 1014.21 1014.17 1014.15 1014.15 1014.19 1014.25 1014.35 1014.49 1014.66 1014.86 1015.06 1015.26 1015.45 1015.61 1015.76 1015.88 1016.00 1016.13 1016.30 1016.51
1017.04 1017.17 1017.22 1017.20 1017.12 1016.99 1016.83 1016.65 1016.47 1016.31 1016.15 1016.01 1015.87 1015.73 1015.59 1015.44 1015.28 1015.12 1014.96 1014.81 1014.68 1014.55 1014.44 1014.34 1014.25 1014.17 1014.11 1014.08 1014.07 1014.10 1014.16 1014.27 1014.40 1014.55 1014.71 1014.86 1015.00 1015.12 1015.23 1015.34 1015.48 1015.64 1015.86
1017.14 1017.20 1017.18 1017.10 1016.97 1016.81 1016.63 1016.46 1016.29 1016.15 1016.02 1015.90 1015.79 1015.67 1015.54 1015.40 1015.26 1015.11 1014.96 1014.82 1014.68 1014.56 1014.43 1014.31 1014.20 1014.08 1013.97 1013.87 1013.80 1013.76 1013.76 1013.79 1013.87 1013.96 1014.08 1014.20 1014.31 1014.42 1014.52 1014.63 1014.75 1014.91 1015.12
1017.10 1017.10 1017.02 1016.89 1016.72 1016.54 1016.36 1016.19 1016.05 1015.93 1015.82 1015.72 1015.61 1015.49 1015.36 1015.22 1015.07 1014.92 1014.77 1014.63 1014.50 1014.38 1014.25 1014.12 1013.99 1013.85 1013.70 1013.56 1013.44 1013.34 1013.28 1013.25 1013.26 1013.31 1013.38 1013.47 1013.57 1013.67 1013.76 1013.87 1013.99 1014.13 1014.32
1016.89 1016.83 1016.72 1016.55 1016.37 1016.18 1016.02 1015.87 1015.76 1015.66 1015.57 1015.47 1015.37 1015.24 1015.10 1014.94 1014.78 1014.61 1014.45 1014.31 1014.17 1014.05 1013.92 1013.79 1013.65 1013.50 1013.33 1013.16 1012.99 1012.85 1012.73 1012.65 1012.62 1012.62 1012.66 1012.73 1012.81 1012.90 1013.00 1013.10 1013.21 1013.35 1013.52
1016.50 1016.42 1016.27 1016.10 1015.92 1015.75 1015.61 1015.50 1015.41 1015.34 1015.27 1015.18 1015.08 1014.94 1014.78 1014.60 1014.41 1014.22 1014.04 1013.88 1013.74 1013.61 1013.49 1013.36 1013.21 1013.05 1012.87 1012.68 1012.48 1012.30 1012.14 1012.02 1011.95 1011.92 1011.94 1011.99 1012.07 1012.16 1012.27 1012.38 1012.49 1012.62 1012.77
1016.00 1015.89 1015.74 1015.57 1015.41 1015.27 1015.16 1015.08 1015.03 1014.98 1014.93 1014.85 1014.75 1014.60 1014.43 1014.22 1014.01 1013.80 1013.60 1013.42 1013.26 1013.12 1012.99 1012.86 1012.71 1012.54 1012.35 1012.14 1011.93 1011.72 1011.54 1011.39 1011.28 1011.23 1011.23 1011.28 1011.36 1011.47 1011.59 1011.72 1011.84 1011.97 1012.11
1015.43 1015.31 1015.16 1015.01 1014.86 1014.75 1014.67 1014.63 1014.60 1014.58 1014.54 1014.48 1014.37 1014.22 1014.04 1013.82 1013.58 1013.35 1013.12 1012.92 1012.75 1012.59 1012.44 1012.30 1012.14 1011.97 1011.77 1011.56 1011.33 1011.11 1010.90 1010.73 1010.61 1010.55 1010.54 1010.60 1010.69 1010.82 1010.97 1011.12 1011.27 1011.42 1011.56
1014.88 1014.75 1014.61 1014.46 1014.33 1014.23 1014.18 1014.15 1014.14 1014.13 1014.11 1014.05 1013.95 1013.80 1013.60 1013.37 1013.12 1012.86 1012.61 1012.39 1012.18 1012.00 1011.83 1011.67 1011.50 1011.32 1011.11 1010.89 1010.66 1010.43 1010.21 1010.04 1009.91 1009.85 1009.85 1009.91 1010.03 1010.19 1010.37 1010.56 1010.74 1010.92 1011.07
1014.38 1014.25 1014.11 1013.96 1013.84 1013.75 1013.69 1013.66 1013.65 1013.64 1013.62 1013.56 1013.45 1013.30 1013.10 1012.86 1012.59 1012.31 1012.04 1011.78 1011.54 1011.33 1011.13 1010.94 1010.75 1010.55 1010.34 1010.11 1009.88 1009.65 1009.43 1009.26 1009.14 1009.08 1009.10 1009.18 1009.32 1009.51 1009.74 1009.97 1010.20 1010.41 1010.59
1013.95 1013.83 1013.69 1013.54 1013.41 1013.30 1013.22 1013.18 1013.15 1013.12 1013.07 1013.00 1012.88 1012.72 1012.50 1012.25 1011.96 1011.66 1011.35 1011.06 1010.78 1010.53 1010.29 1010.07 1009.85 1009.64 1009.42 1009.18 1008.95 1008.73 1008.53 1008.36 1008.25 1008.21 1008.24 1008.35 1008.52 1008.74 1009.01 1009.28 1009.56 1009.81 1010.04
1013.59 1013.47 1013.33 1013.17 1013.02 1012.88 1012.77 1012.68 1012.61 1012.55 1012.47 1012.37 1012.23 1012.04 1011.80 1011.52 1011.21 1010.87 1010.53 1010.19 1009.87 1009.57 1009.29 1009.03 1008.79 1008.55 1008.32 1008.09 1007.87 1007.66 1007.47 1007.33 1007.23 1007.21 1007.26 1007.38 1007.58 1007.83 1008.13 1008.45 1008.77 1009.08 1009.36
1013.25 1013.14 1012.99 1012.82 1012.64 1012.47 1012.32 1012.18 1012.05 1011.93 1011.81 1011.66 1011.48 1011.26 1010.99 1010.68 1010.33 1009.96 1009.57 1009.19 1008.82 1008.47 1008.15 1007.85 1007.58 1007.32 1007.08 1006.86 1006.64 1006.45 1006.28 1006.16 1006.08 1006.08 1006.14 1006.28 1006.50 1006.78 1007.10 1007.46 1007.82 1008.17 1008.49
Thickness
5726 5727 5727 5726 5724 5722 5721 5720 5718 5717 5715 5712 5710 5707 5705 5704 5704 5704 5704 5703 5702 5701 5699 5698 5697 5696 5695 5693 5693 5691 5689 5688 5688 5686 5683 5684 5686 5687 5687 5688 5689 5690 5690
5720 5721 5722 5721 5719 5718 5716 5715 5714 5712 5711 5709 5707 5705 5703 5701 5700 5700 5700 5699 5698 5697 5696 5694 5693 5693 5691 5689 5689 5688 5685 5684 5684 5681 5677 5673 5675 5679 5681 5682 5683 5684 5685
5716 5716 5717 5716 5715 5713 5712 5712 5709 5708 5707 5705 5703 5701 5698 5696 5695 5694 5694 5694 5694 5693 5692 5691 5690 5689 5688 5686 5685 5684 5682 5679 5679 5680 5676 5670 5667 5668 5672 5675 5676 5678 5678
5715 5713 5713 5711 5711 5711 5710 5708 5706 5704 5702 5701 5698 5695 5691 5688 5689 5689 5689 5689 5690 5689 5688 5687 5686 5685 5684 5682 5682 5681 5679 5678 5675 5675 5675 5674 5672 5667 5664 5667 5670 5672 5673
5712 5710 5710 5710 5709 5708 5706 5704 5703 5700 5698 5696 5694 5691 5688 5687 5686 5685 5685 5684 5685 5685 5685 5684 5683 5682 5680 5679 5678 5677 5676 5675 5673 5672 5671 5670 5668 5667 5663 5659 5661 5664 5666
5709 5708 5708 5706 5704 5703 5702 5700 5698 5696 5694 5692 5690 5688 5685 5683 5682 5680 5679 5679 5679 5679 5680 5680 5679 5678 5677 5675 5674 5674 5673 5671 5670 5669 5668 5667 5665 5662 5660 5656 5655 5656 5659
5705 5703 5702 5700 5698 5697 5696 5694 5692 5690 5689 5687 5685 5684 5682 5681 5679 5677 5676 5675 5674 5673 5673 5675 5674 5673 5673 5672 5671 5670 5668 5667 5666 5665 5664 5664 5663 5662 5659 5655 5652 5651 5652
5700 5699 5698 5696 5694 5692 5690 5688 5686 5684 5683 5682 5680 5679 5678 5677 5676 5675 5674 5672 5671 5671 5671 5670 5670 5669 5668 5667 5666 5665 5664 5663 5662 5661 5660 5659 5658 5658 5656 5653 5649 5645 5645
5695 5695 5694 5692 5690 5687 5686 5684 5682 5680 5678 5677 5675 5674 5673 5672 5671 5671 5670 5670 5669 5669 5668 5666 5665 5665 5664 5663 5661 5660 5659 5658 5657 5656 5655 5654 5653 5653 5652 5650 5648 5644 5638
5689 5689 5688 5687 5685 5683 5681 5679 5677 5675 5673 5671 5670 5669 5668 5668 5668 5667 5666 5665 5665 5664 5663 5662 5661 5660 5659 5658 5656 5655 5654 5653 5651 5650 5648 5647 5646 5646 5646 5645 5643 5641 5637
5684 5683 5682 5681 5679 5677 5674 5672 5670 5669 5667 5666 5665 5664 5663 5662 5662 5661 5661 5660 5660 5659 5658 5658 5657 5655 5654 5653 5651 5650 5649 5647 5645 5644 5642 5641 5640 5639 5638 5638 5636 5634 5632
5679 5678 5676 5674 5672 5670 5668 5666 5664 5663 5662 5661 5659 5658 5657 5657 5656 5655 5655 5655 5654 5654 5653 5652 5651 5650 5649 5648 5646 5645 5643 5642 5639 5638 5636 5635 5634 5632 5631 5630 5628 5627 5626
5672 5670 5668 5667 5665 5664 5662 5660 5659 5657 5657 5655 5653 5652 5651 5650 5649 5649 5649 5649 5648 5647 5647 5646 5645 5645 5644 5643 5642 5640 5639 5637 5635 5633 5631 5629 5627 5625 5624 5623 5621 5619 5619
5665 5663 5661 5661 5660 5659 5657 5655 5654 5653 5651 5649 5647 5646 5645 5644 5644 5643 5643 5642 5642 5641 5641 5640 5640 5639 5639 5638 5637 5635 5633 5631 5629 5627 5626 5624 5622 5619 5617 5616 5613 5611 5609
5659 5658 5656 5655 5654 5653 5652 5650 5649 5648 5646 5643 5641 5640 5640 5639 5638 5637 5636 5636 5636 5636 5635 5634 5634 5633 5633 5632 5631 5629 5627 5625 5622 5621 5619 5618 5616 5614 5612 5610 5606 5604 5601
5654 5653 5652 5650 5649 5648 5647 5645 5644 5642 5641 5638 5636 5635 5633 5632 5631 5631 5630 5630 5629 5629 5628 5628 5628 5627 5627 5627 5626 5624 5621 5619 5617 5614 5612 5611 5610 5608 5606 5604 5602 5599 5596
5650 5649 5647 5646 5645 5644 5643 5640 5639 5637 5634 5632 5630 5628 5627 5626 5625 5625 5624 5623 5623 5622 5622 5621 5621 5621 5621 5621 5620 5619 5616 5613 5610 5608 5605 5605 5603 5600 5598 5597 5595 5593 5591
5646 5645 5643 5642 5641 5640 5638 5635 5633 5630 5628 5626 5624 5622 5621 5620 5618 5617 5616 5616 5616 5615 5615 5615 5614 5614 5614 5614 5614 5612 5609 5606 5603 5601 5599 5597 5595 5594 5591 5589 5586 5584 5583
5643 5641 5640 5639 5636 5634 5632 5629 5626 5624 5622 5620 5618 5617 5616 5613 5611 5610 5609 5609 5609 5608 5608 5608 5607 5607 5607 5607 5606 5605 5601 5598 5596 5595 5593 5590 5588 5588 5585 5582 5578 5576 5575
5636 5635 5634 5632 5630 5628 5626 5622 5620 5617 5616 5615 5614 5613 5611 5608 5606 5604 5603 5602 5602 5602 5602 5601 5600 5600 5600 5600 5599 5597 5594 5590 5588 5586 5585 5583 5582 5580 5578 5574 5571 5569 5568
5630 5629 5627 5625 5623 5621 5619 5615 5613 5612 5612 5611 5609 5607 5605 5603 5601 5598 5597 5595 5595 5594 5594 5594 5593 5593 5592 5592 5591 5589 5586 5584 5581 5579 5577 5575 5575 5573 5570 5568 5565 5564 5562
5622 5622 5620 5618 5617 5615 5612 5608 5607 5609 5607 5605 5603 5601 5599 5597 5596 5592 5590 5588 5588 5586 5585 5584 5583 5583 5583 5583 5582 5581 5580 5578 5574 5573 5571 5569 5568 5566 5563 5560 5559 5556 5553
5614 5614 5612 5610 5609 5608 5606 5603 5602 5602 5600 5598 5596 5594 5592 5590 5588 5585 5583 5581 5580 5579 5578 5577 5575 5576 5575 5575 5575 5573 5572 5571 5568 5566 5565 5563 5560 5558 5554 5552 5550 5547 5543
5606 5605 5604 5602 5601 5600 5600 5598 5596 5595 5593 5590 5588 5586 5584 5582 5580 5578 5577 5575 5574 5572 5571 5570 5569 5568 5568 5567 5566 5565 5563 5562 5559 5557 5555 5553 5551 5548 5545 5543 5540 5537 5534
5598 5597 5596 5595 5594 5594 5592 5591 5589 5588 5585 5582 5580 5578 5577 5574 5572 5570 5569 5569 5568 5568 5567 5566 5564 5562 5561 5562 5561 5558 5556 5553 5551 5548 5544 5541 5539 5536 5534 5532 5529 5527 5525
5591 5590 5589 5588 5587 5586 5585 5584 5583 5581 5578 5575 5573 5571 5569 5567 5564 5563 5561 5562 5561 5562 5561 5560 5559 5558 5557 5556 5554 5551 5549 5546 5543 5538 5534 5532 5530 5528 5526 5523 5521 5518 5516